When you browse on this site, cookies collect data to enhance your experience and personalize the content and advertising you see.
Visit our Privacy Policy to learn more. By continuing to use the site, you agree to this use of cookies and data.
EN

Hourly Weather Pechera

Today, 16 July, Thursday

Time Temperature Precipitation Wind Pressure Humidity
00:00 +15°C° 0 mm 1 mps 738 mmHg 85%
01:00 +14°C° 0 mm 1 mps 738 mmHg 86%
02:00 +13°C° 0 mm 0 mps 738 mmHg 85%
03:00 +13°C° 0 mm 0 mps 738 mmHg 84%
04:00 +13°C° 0 mm 0 mps 738 mmHg 84%
05:00 +13°C° 0 mm 0 mps 738 mmHg 83%
06:00 +15°C° 0 mm 0 mps 738 mmHg 78%
07:00 +19°C° 0 mm 1 mps 738 mmHg 73%
08:00 +21°C° 0 mm 1 mps 738 mmHg 68%
09:00 +22°C° 0 mm 1 mps 738 mmHg 63%
10:00 +23°C° 0 mm 1 mps 738 mmHg 59%
11:00 +25°C° 0 mm 1 mps 738 mmHg 54%
12:00 +25°C° 0.4 mm 1 mps 738 mmHg 54%
13:00 +25°C° 0.4 mm 1 mps 738 mmHg 54%
14:00 +25°C° 0.4 mm 2 mps 738 mmHg 55%
15:00 +25°C° 0.3 mm 2 mps 737 mmHg 57%
16:00 +25°C° 0.3 mm 2 mps 737 mmHg 59%
17:00 +24°C° 0.3 mm 2 mps 736 mmHg 61%
18:00 +23°C° 0.6 mm 2 mps 737 mmHg 66%
19:00 +20°C° 0.6 mm 2 mps 737 mmHg 72%
20:00 +19°C° 0.6 mm 2 mps 737 mmHg 77%
21:00 +18°C° 0.2 mm 2 mps 737 mmHg 81%
22:00 +17°C° 0.2 mm 2 mps 737 mmHg 86%
23:00 +16°C° 0.2 mm 2 mps 737 mmHg 90%

Tomorrow, 17 July, Friday

Time Temperature Precipitation Wind Pressure Humidity
00:00 +16°C° 0 mm 2 mps 737 mmHg 90%
01:00 +15°C° 0 mm 1 mps 737 mmHg 90%
02:00 +15°C° 0 mm 1 mps 737 mmHg 89%
03:00 +15°C° 0 mm 1 mps 737 mmHg 89%
04:00 +15°C° 0 mm 1 mps 737 mmHg 89%
05:00 +15°C° 0 mm 1 mps 736 mmHg 88%
06:00 +17°C° 0 mm 2 mps 737 mmHg 84%
07:00 +18°C° 0 mm 2 mps 737 mmHg 79%
08:00 +20°C° 0 mm 2 mps 738 mmHg 75%
09:00 +21°C° 0.1 mm 2 mps 738 mmHg 69%
10:00 +24°C° 0.1 mm 3 mps 738 mmHg 64%
11:00 +25°C° 0.1 mm 3 mps 738 mmHg 59%
12:00 +25°C° 0.2 mm 3 mps 738 mmHg 57%
13:00 +26°C° 0.2 mm 3 mps 738 mmHg 55%
14:00 +27°C° 0.2 mm 3 mps 738 mmHg 53%
15:00 +26°C° 0.1 mm 3 mps 738 mmHg 55%
16:00 +26°C° 0.1 mm 3 mps 738 mmHg 57%
17:00 +26°C° 0.1 mm 2 mps 738 mmHg 59%
18:00 +24°C° 0.2 mm 2 mps 738 mmHg 66%
19:00 +21°C° 0.2 mm 2 mps 738 mmHg 72%
20:00 +20°C° 0.2 mm 2 mps 738 mmHg 78%
21:00 +19°C° 0 mm 2 mps 738 mmHg 80%
22:00 +18°C° 0 mm 2 mps 738 mmHg 83%
23:00 +17°C° 0 mm 2 mps 738 mmHg 85%

Day after tomorrow, 18 July, Saturday

Time Temperature Precipitation Wind Pressure Humidity
00:00 +17°C° 0 mm 2 mps 739 mmHg 85%
01:00 +17°C° 0 mm 2 mps 739 mmHg 86%
02:00 +17°C° 0 mm 2 mps 739 mmHg 87%
03:00 +16°C° 0 mm 2 mps 739 mmHg 87%
04:00 +16°C° 0 mm 3 mps 739 mmHg 87%
05:00 +16°C° 0 mm 3 mps 739 mmHg 87%
06:00 +18°C° 0 mm 3 mps 739 mmHg 83%
07:00 +19°C° 0 mm 3 mps 739 mmHg 79%
08:00 +20°C° 0 mm 3 mps 739 mmHg 76%
09:00 +22°C° 0.1 mm 3 mps 740 mmHg 70%
10:00 +25°C° 0.1 mm 3 mps 740 mmHg 63%
11:00 +26°C° 0.1 mm 4 mps 740 mmHg 57%
12:00 +27°C° 0.6 mm 3 mps 739 mmHg 58%
13:00 +27°C° 0.6 mm 3 mps 739 mmHg 58%
14:00 +27°C° 0.6 mm 3 mps 739 mmHg 58%
15:00 +27°C° 0.6 mm 3 mps 739 mmHg 59%
16:00 +27°C° 0.6 mm 3 mps 739 mmHg 60%
17:00 +26°C° 0.6 mm 3 mps 739 mmHg 61%
18:00 +25°C° 0.1 mm 2 mps 739 mmHg 67%
19:00 +23°C° 0.1 mm 2 mps 739 mmHg 73%
20:00 +20°C° 0.1 mm 2 mps 739 mmHg 79%
21:00 +20°C° 0 mm 2 mps 739 mmHg 81%
22:00 +19°C° 0 mm 2 mps 739 mmHg 83%
23:00 +18°C° 0 mm 2 mps 739 mmHg 85%

19 July, Sunday

Time Temperature Precipitation Wind Pressure Humidity
00:00 +18°C° 0 mm 2 mps 739 mmHg 86%
01:00 +17°C° 0 mm 2 mps 739 mmHg 87%
02:00 +17°C° 0 mm 2 mps 739 mmHg 88%
03:00 +17°C° 0 mm 2 mps 739 mmHg 88%
04:00 +17°C° 0 mm 2 mps 739 mmHg 89%
05:00 +17°C° 0 mm 2 mps 739 mmHg 89%
06:00 +18°C° 0 mm 2 mps 739 mmHg 84%
07:00 +20°C° 0 mm 3 mps 739 mmHg 80%
08:00 +21°C° 0 mm 3 mps 739 mmHg 75%
09:00 +24°C° 0.1 mm 3 mps 739 mmHg 70%
10:00 +25°C° 0.1 mm 3 mps 739 mmHg 64%
11:00 +27°C° 0.1 mm 4 mps 739 mmHg 58%
12:00 +27°C° 0.2 mm 4 mps 739 mmHg 57%
13:00 +27°C° 0.2 mm 4 mps 739 mmHg 55%
14:00 +28°C° 0.2 mm 4 mps 738 mmHg 54%
15:00 +27°C° 0.3 mm 4 mps 738 mmHg 57%
16:00 +27°C° 0.3 mm 4 mps 738 mmHg 60%
17:00 +26°C° 0.3 mm 4 mps 738 mmHg 64%
18:00 +25°C° 0.2 mm 3 mps 738 mmHg 69%
19:00 +22°C° 0.2 mm 3 mps 738 mmHg 75%
20:00 +20°C° 0.2 mm 2 mps 738 mmHg 80%
21:00 +20°C° 0 mm 2 mps 738 mmHg 82%
22:00 +19°C° 0 mm 2 mps 738 mmHg 83%
23:00 +18°C° 0 mm 2 mps 738 mmHg 84%

20 July, Monday

Time Temperature Precipitation Wind Pressure Humidity
00:00 +18°C° 0.1 mm 2 mps 738 mmHg 85%
01:00 +18°C° 0.1 mm 2 mps 737 mmHg 85%
02:00 +18°C° 0.1 mm 2 mps 737 mmHg 85%
03:00 +18°C° 0.1 mm 2 mps 737 mmHg 85%
04:00 +17°C° 0.1 mm 2 mps 737 mmHg 85%
05:00 +17°C° 0.1 mm 2 mps 737 mmHg 86%
06:00 +19°C° 0.1 mm 2 mps 737 mmHg 84%
07:00 +20°C° 0.1 mm 2 mps 737 mmHg 82%
08:00 +21°C° 0.1 mm 2 mps 737 mmHg 80%
09:00 +22°C° 0.6 mm 3 mps 737 mmHg 75%
10:00 +25°C° 0.6 mm 3 mps 737 mmHg 70%
11:00 +26°C° 0.6 mm 3 mps 737 mmHg 65%
12:00 +26°C° 1.6 mm 3 mps 736 mmHg 65%
13:00 +26°C° 1.6 mm 2 mps 736 mmHg 65%
14:00 +26°C° 1.6 mm 2 mps 736 mmHg 65%
15:00 +26°C° 0.7 mm 3 mps 736 mmHg 69%
16:00 +25°C° 0.7 mm 3 mps 735 mmHg 73%
17:00 +23°C° 0.7 mm 4 mps 735 mmHg 77%
18:00 +22°C° 0.5 mm 3 mps 735 mmHg 81%
19:00 +21°C° 0.5 mm 2 mps 735 mmHg 86%
20:00 +21°C° 0.5 mm 1 mps 735 mmHg 90%
21:00 +20°C° 0.1 mm 1 mps 735 mmHg 91%
22:00 +20°C° 0.1 mm 1 mps 736 mmHg 92%
23:00 +17°C° 0.1 mm 0 mps 736 mmHg 92%

21 July, Tuesday

Time Temperature Precipitation Wind Pressure Humidity
00:00 +19°C° 0 mm 1 mps 736 mmHg 92%
01:00 +19°C° 0 mm 1 mps 736 mmHg 92%
02:00 +17°C° 0 mm 2 mps 736 mmHg 92%
03:00 +17°C° 0 mm 2 mps 736 mmHg 93%
04:00 +17°C° 0 mm 2 mps 736 mmHg 93%
05:00 +17°C° 0 mm 3 mps 736 mmHg 94%
06:00 +19°C° 0 mm 3 mps 736 mmHg 89%
07:00 +20°C° 0 mm 3 mps 736 mmHg 84%
08:00 +22°C° 0 mm 3 mps 737 mmHg 79%
09:00 +24°C° 0 mm 3 mps 737 mmHg 73%
10:00 +26°C° 0 mm 3 mps 737 mmHg 66%
11:00 +27°C° 0 mm 3 mps 737 mmHg 59%
12:00 +28°C° 0 mm 3 mps 737 mmHg 57%
13:00 +28°C° 0 mm 3 mps 737 mmHg 55%
14:00 +29°C° 0 mm 4 mps 737 mmHg 53%
15:00 +28°C° 0.4 mm 4 mps 737 mmHg 59%
16:00 +27°C° 0.4 mm 4 mps 737 mmHg 66%
17:00 +26°C° 0.4 mm 4 mps 737 mmHg 72%
18:00 +25°C° 0.9 mm 4 mps 737 mmHg 78%
19:00 +22°C° 0.9 mm 5 mps 737 mmHg 84%
20:00 +20°C° 0.9 mm 5 mps 737 mmHg 90%
21:00 +20°C° 0 mm 5 mps 737 mmHg 90%
22:00 +19°C° 0 mm 5 mps 738 mmHg 91%
23:00 +17°C° 0 mm 5 mps 738 mmHg 92%
Show more